Showing default

FR 1, 1814

Orbit data source: Space-Track

FR 1, 1814 is a payload satellite owned by CNES (FR) in LEO that was launched on Mon, 06 Dec 1965 UTC via an SCOUT X-4 launch vehicle from the Air Force Western Test Range (AFWTR). Payload-class satellites include a variety of spacecraft equipped with specific instruments for various scientific and technological missions. These include communications satellites like Starlink; space stations such as the ISS; scientific satellites like the Hubble; Earth observation satellites from companies like Planet Labs, Umbra, and HawkEye 360; GPS; miniature CubeSats for education and research; and military/defense satellites.

Loading next visibility...
Identifier
1814, 1965-101A
Orbit
LEO
Country
Flag of FRFR
Related business
Manufacturer
Nord
Mission
Spacecraft
Bus & Motor
FR, Unknown motor
Mass
62 kg wet, 62 kg dry
Launch date (UTC)
1965-12-06 (61 years ago)
Launch vehicle
SCOUT X-4
Launch site
Air Force Western Test Range (AFWTR)
Object type
Payload
Rocket body
Debris
Shape & HBR
Unknown
Radar Cross Section
Medium (>0.1 m² and <1 m²)

Expand to show TLE details & history
Last TLE update: 16 hours ago

TLE from 16 hours ago
0 FR 1
1  1814U 65101A   26177.87868953  .00000837  00000-0  13696-3 0  9990
2  1814  75.8660 334.2822 0005136  74.7749 285.4001 14.71690121 57526
Epoch: 2026-06-26T21:05Z
TLE epoch observation values (Epoch: 2026-06-26T21:05:18.775Z)
Latitude
0.00003°
Longitude
102.9531°
Altitude
657.475 km
Speed
7.529 km/s
True Right ascension
22h 17m 07s
True Declination
0° 00' 00"
Sunlit
Object was in full shadow at epoch
Visualization orbit readout
Latitude
Unknown
Longitude
Unknown
Altitude
Unknown
Speed
Unknown
Apparent Right ascension
Unknown
Apparent Declination
Unknown
Sunlit
N/A
Visualization observer readout
Local Sidereal Time
00:43:38
Azimuth
Unknown
Elevation
Unknown
Doppler factor
Unknown
Orbital elements
Apogee altitude
656.723 km
Perigee altitude
649.501 km
Semi-major axis
7,031.249 km
Eccentricity
0.00051
Inclination
75.866°
RAAN
334.2822°
Arg. of periapsis
74.7749°
True anomaly
285.34335°
Mean anomaly
285.4001°
Eccentric anomaly
285.37173°
Mean motion
3.68124 °/min
Orbital period
97.79 mins
BSTAR
0.00013696
Loading maneuver chart data...
Computing Atmospheric mass density...
Loading historical data...
Loading historical data...
Loading historical data...
Loading historical data...
Loading historical data...
Loading historical data...
Loading historical data...

Documentation

Showing up to 5 results
|